Location: McFarlands Corners
(41.4117°N, 81.3382°W)
Time: 20:50:41
(UTC+00:00)

Courier 1B - Visible Passes

Search period start: 15 February 2026 00:00
Search period end: 25 February 2026 00:00
Orbit: 962 x 1208 km, 28.3° (Epoch: 15 February)

Date Brightness Start Highest point End Pass type
(mag) Time Alt. Az. Time Alt. Az. Time Alt. Az.
15 Feb 9.7 01:56:28 10° SSW 01:58:39 16° SSW 01:58:39 16° SSW visible
16 Feb 9.4 01:03:29 10° SSW 01:08:12 18° SSE 01:08:17 18° SSE visible
16 Feb 10.2 02:55:04 10° SW 02:55:11 10° SW 02:55:11 10° SW visible
17 Feb 9.6 00:10:59 10° S 00:14:31 14° SSE 00:17:54 10° SE visible
17 Feb 9.4 02:01:34 10° SW 02:04:48 21° SSW 02:04:48 21° SSW visible
18 Feb 9.1 01:08:14 10° SW 01:13:50 23° SSE 01:14:22 23° SSE visible
18 Feb 10.1 03:00:45 10° WSW 03:01:16 12° SW 03:01:16 12° SW visible
19 Feb 9.3 00:15:08 10° SSW 00:20:06 20° SSE 00:23:56 14° SE visible
19 Feb 9.3 02:07:05 10° SW 02:10:50 24° SSW 02:10:50 24° SSW visible
20 Feb 8.9 01:13:33 10° SW 01:19:32 28° S 01:20:22 27° SSE visible
20 Feb 10.1 03:06:40 10° WSW 03:07:15 12° WSW 03:07:15 12° WSW visible
21 Feb 9.1 00:20:11 10° SW 00:25:47 25° SSE 00:29:53 16° SE visible
21 Feb 9.3 02:12:54 10° WSW 02:16:46 25° SSW 02:16:46 25° SSW visible
21 Feb 9.3 23:27:00 10° SSW 23:32:04 21° SSE 23:37:22 10° ESE visible
22 Feb 8.8 01:19:14 10° SW 01:25:18 29° S 01:26:17 28° SSE visible
22 Feb 10.2 03:12:52 10° WSW 03:13:10 11° WSW 03:13:10 11° WSW visible
23 Feb 9.0 00:25:42 10° SW 00:31:32 28° S 00:35:48 17° SE visible
23 Feb 9.4 02:18:57 10° WSW 02:22:41 23° SW 02:22:41 23° SW visible
23 Feb 9.1 23:32:17 10° SW 23:37:48 26° S 23:43:34 10° ESE visible
24 Feb 8.9 01:25:11 10° WSW 01:31:05 28° S 01:32:11 27° S visible
